Vertical_Velocity
-5 -0 6 9 -1 -10 -6 -1 0 -5 8 -8 1 -3 -8 2 14 -2 4 3 -6 -2 5 3 0 2 -9 -6 -3 -4 0 6 1 5 7 2 3 1 -0 3 1 6 1 -8
-4 -8 -1 -5 -8 -8 -3 0 -4 -8 1 -3 1 -4 11 -8 -1 -2 -3 3 7 -2 5 4 -5 -8 -2 -5 -1 7 4 0 -1 5 4 7 2 -2 4 5 1 -3 -8 -14
-4 10 -8 -6 -4 -2 -7 6 -5 -0 -10 -16 20 -9 -1 -7 -10 -8 -1 4 -0 10 -6 -6 4 -2 0 -1 -4 -8 -1 -3 9 -3 -0 5 8 2 -1 -4 -3 -1 -0 1
8 15 -4 -0 -1 -5 -2 -9 -2 -3 2 2 -1 -14 4 10 15 3 -4 5 -5 -3 -4 -6 -2 -1 -3 -3 -1 -1 -2 -2 -11 -1 -7 2 -3 -2 1 1 2 5 -2 4
17 -6 -1 -1 10 -4 6 -6 -2 -2 0 7 -8 21 10 -10 2 -5 8 -9 -6 -8 -10 -7 -9 -3 -1 -3 -2 -4 -1 2 2 1 1 6 -8 -3 20 -3 -2 -5 1 2
18 -7 -5 5 -12 -5 -5 -5 -7 6 6 9 8 -4 1 28 -1 13 -1 -6 -4 -7 -5 -6 -3 -4 -1 -4 -3 -1 -2 -2 -2 1 4 -2 -6 2 -3 10 4 1 1 5
-1 -2 -2 -0 -4 -7 -3 4 -2 9 13 -3 -6 0 -2 -1 0 -11 -7 -6 -7 -5 -6 -9 -10 -8 -5 -7 -4 -6 -7 -1 -3 -1 -1 1 3 4 0 7 -1 2 -4 -9
-8 11 -3 -5 0 13 2 -3 5 2 3 -2 4 -2 22 -7 -5 -13 -9 -7 -5 -5 -9 -9 -9 -6 -7 -8 -9 -4 -3 -2 -8 0 -1 1 0 6 -1 5 4 5 -2 -0
6 14 -6 -3 -2 -6 16 8 1 -1 -7 8 -8 10 -21 4 -5 22 -14 -5 -0 0 2 -1 -2 -2 -4 -7 -8 -13 -6 -2 -6 -1 -4 -1 3 -4 2 17 8 3 -4 1
4 13 -9 -5 -4 -5 -4 7 6 -0 0 -1 -3 -2 4 8 -3 -1 -3 -5 -5 -6 -5 -3 -4 -4 -1 -3 -5 -3 -6 -11 -4 -0 -2 5 23 24 3 4 8 10 4 8
-0 0 4 4 -6 10 -6 2 -4 -1 7 4 1 7 -6 -3 -0 0 -6 -4 -5 -5 -6 -4 -2 -4 -5 -3 -4 -3 -8 -10 -6 -2 10 -8 -4 -16 19 11 13 8 3 7
1 0 8 -7 6 -9 -1 -4 1 6 4 -3 0 -38 10 -0 -6 -9 -8 -3 -5 -4 -4 -5 -5 -1 -3 -3 1 -3 -2 -4 -2 -2 10 2 8 -9 70 6 6 8 10 2
-8 2 7 -3 -1 -3 -0 -1 -0 -6 -3 -10 9 -15 -19 -5 -2 -1 -1 -4 -4 -1 -0 -0 -3 -1 -1 -1 -4 -2 -1 1 0 -0 -10 24 -0 -0 4 2 10 7 3 7
1 -2 -2 7 10 9 -3 2 -3 2 8 -4 2 -0 40 10 0 -6 -5 -6 -5 -5 -4 -3 -3 -2 -1 0 -2 -0 0 0 1 7 -1 13 1 4 -37 20 -7 10 6 -0
-5 -5 1 -5 -4 -4 2 -1 -2 -3 -11 12 -16 2 22 -7 -4 -5 -5 -4 -2 -4 -4 -3 -2 -2 0 -1 -0 2 -5 5 0 5 3 7 5 16 5 12 2 8 5 16
1 -0 -0 -6 0 -1 1 -1 -1 -2 -1 3 4 8 -11 -0 0 -5 -1 -5 -4 -2 -0 -1 -2 -2 -2 0 0 1 -5 -1 0 5 0 2 4 -6 -11 3 -17 -11 5 4
-1 3 -1 -2 -6 2 6 -16 -1 -3 4 -9 -6 10 -5 -5 -6 -3 -2 -2 -2 -1 -1 -1 -1 -1 -1 0 -1 3 3 2 -5 -2 5 -2 6 6 7 4 2 8 6 10
-1 -1 5 5 -6 9 6 -4 -0 -7 -8 3 -3 -4 -6 -4 -2 -1 -0 -2 -2 -1 -1 0 -0 1 0 1 2 2 3 5 5 3 1 -6 2 3 -1 1 8 -2 7 -6
-0 3 1 -2 -1 8 -4 -5 -2 3 11 -5 -4 -5 -4 -3 -0 -7 -3 -6 -3 -2 -1 -1 -0 -3 -1 0 -0 0 -0 -1 3 3 -1 -4 -0 -2 -9 -9 -8 -1 7 1
-0 -3 1 0 6 0 7 -5 -5 -5 -9 -6 -4 -3 -3 -0 -1 7 0 -1 -0 -1 -1 0 0 1 1 -0 0 -2 -2 1 -2 -2 2 7 9 6 7 4 4 4 2 -11
-2 2 -5 -5 1 3 -3 -4 -2 2 -1 -2 -2 -1 -2 -2 -2 -3 -2 -0 -1 -1 -1 -0 0 -1 1 -0 -1 -1 2 0 -1 0 -2 -4 -5 -3 -3 -3 -1 1 -2 -3
-6 -3 -3 0 8 0 -2 -2 -3 -6 -4 -1 -1 -1 -2 -2 -2 -2 -2 -3 -4 -3 -3 -2 -1 0 1 -3 -0 4 -2 -2 -2 0 1 1 3 2 0 1 5 1 3 5
-0 -11 6 -1 8 -0 -1 -6 -3 -1 -1 -1 -2 -0 -1 -2 -1 -0 -1 -2 -2 -3 -2 -2 -1 -2 -2 1 2 -1 2 5 2 2 3 -1 -0 1 4 6 4 1 3 -0
-3 -1 -5 -1 -2 -0 -4 -4 -2 -0 -1 -1 -1 -1 -1 -1 -0 1 -1 -0 -0 -1 -1 -1 -1 -1 -2 -2 -3 0 2 2 0 1 1 -1 -1 4 4 -2 -2 -3 -2 -3
-5 1 -0 0 1 -6 -2 -3 -3 -2 -0 -0 -0 -1 -1 -0 0 -1 -2 -1 -2 -1 -1 -2 -2 -1 -1 -1 -1 -2 -2 -3 1 3 4 4 2 -2 -6 -5 -3 -3 -3 -1
-5 -1 -2 10 1 1 -1 -2 -3 -1 0 0 1 0 1 -0 0 -0 -0 -1 -1 -1 -1 1 -1 -1 -1 -2 -1 -2 -2 -2 -4 -4 -0 -1 -0 1 0 3 2 -1 -2 -0
Height
3111 3112 3113 3111 3109 3110 3112 3113 3111 3111 3109 3106 3105 3103 3103 3101 3100 3097 3098 3097 3094 3095 3091 3086 3079 3075 3072 3077 3078 3076 3078 3081 3081 3083 3085 3085 3087 3089 3091 3094 3097 3098 3098 3103
3110 3107 3106 3106 3108 3109 3111 3110 3109 3107 3105 3103 3100 3098 3098 3096 3097 3095 3095 3092 3090 3087 3083 3078 3069 3072 3071 3070 3069 3071 3072 3071 3073 3074 3076 3077 3078 3080 3082 3084 3086 3088 3090 3090
3106 3104 3101 3104 3106 3106 3107 3105 3105 3105 3102 3098 3095 3091 3088 3090 3092 3091 3092 3087 3088 3080 3072 3068 3066 3062 3061 3060 3061 3061 3062 3062 3064 3065 3065 3066 3067 3069 3070 3072 3074 3077 3079 3080
3103 3097 3099 3101 3102 3102 3101 3099 3099 3098 3098 3095 3093 3087 3088 3087 3086 3086 3089 3083 3077 3072 3068 3063 3058 3055 3051 3049 3048 3048 3048 3049 3051 3052 3051 3054 3055 3057 3059 3061 3064 3066 3068 3070
3097 3095 3095 3098 3100 3096 3098 3095 3095 3093 3091 3089 3086 3082 3077 3084 3082 3082 3080 3075 3074 3067 3063 3058 3053 3049 3045 3041 3037 3035 3034 3034 3035 3037 3040 3040 3041 3046 3050 3050 3051 3052 3057 3059
3093 3090 3092 3093 3092 3094 3092 3091 3090 3088 3085 3078 3071 3077 3077 3077 3079 3079 3074 3071 3067 3064 3061 3056 3051 3045 3038 3034 3030 3025 3021 3020 3019 3020 3024 3028 3029 3032 3035 3039 3039 3039 3044 3047
3089 3089 3088 3087 3091 3091 3090 3091 3083 3077 3074 3068 3073 3076 3077 3075 3075 3071 3070 3068 3063 3059 3056 3052 3048 3042 3034 3027 3021 3017 3014 3008 3006 3005 3007 3012 3014 3016 3019 3025 3027 3030 3032 3033
3085 3088 3086 3085 3090 3090 3088 3090 3085 3076 3068 3067 3071 3068 3069 3072 3073 3067 3066 3065 3060 3056 3052 3047 3041 3035 3029 3022 3015 3009 3003 2999 2996 2995 2995 2998 3000 3003 3006 3012 3016 3017 3017 3020
3080 3083 3081 3082 3084 3086 3086 3085 3082 3083 3078 3076 3067 3064 3068 3070 3069 3067 3059 3060 3057 3054 3049 3043 3038 3031 3024 3017 3011 3003 2997 2992 2988 2987 2988 2988 2990 2993 2994 2999 3001 3005 3006 3008
3078 3080 3078 3078 3080 3081 3082 3082 3081 3081 3079 3068 3060 3061 3065 3066 3066 3062 3057 3055 3054 3050 3046 3040 3034 3028 3021 3014 3007 3000 2992 2985 2981 2980 2979 2978 2981 2984 2984 2986 2990 2994 2997 3002
3074 3076 3077 3077 3075 3076 3078 3079 3078 3076 3074 3068 3063 3061 3064 3064 3063 3058 3056 3053 3050 3046 3040 3036 3030 3024 3017 3010 3004 2996 2989 2981 2974 2972 2969 2970 2972 2977 2967 2976 2979 2983 2986 2991
3071 3073 3072 3072 3072 3072 3072 3074 3075 3074 3072 3072 3074 3066 3062 3060 3057 3055 3053 3049 3046 3041 3036 3030 3025 3020 3013 3007 3000 2993 2986 2978 2970 2966 2964 2963 2966 2965 2958 2964 2969 2973 2977 2983
3066 3068 3067 3069 3071 3068 3067 3070 3071 3072 3073 3072 3072 3064 3057 3056 3055 3053 3048 3045 3042 3036 3031 3025 3019 3014 3008 3003 2998 2990 2981 2976 2968 2962 2961 2956 2958 2961 2954 2950 2961 2969 2975 2979
3062 3063 3063 3061 3059 3059 3063 3066 3067 3068 3069 3065 3062 3059 3059 3053 3051 3047 3044 3040 3036 3031 3026 3020 3015 3009 3003 2998 2992 2987 2980 2973 2967 2960 2956 2953 2953 2955 2955 2955 2959 2963 2969 2975
3060 3062 3061 3060 3061 3059 3060 3062 3063 3064 3064 3063 3060 3057 3055 3052 3049 3042 3040 3035 3030 3026 3021 3015 3010 3005 3000 2995 2989 2984 2978 2971 2965 2959 2954 2951 2949 2951 2951 2951 2954 2960 2962 2968
3057 3059 3058 3057 3057 3057 3059 3058 3058 3059 3058 3056 3056 3056 3051 3049 3047 3041 3037 3030 3026 3021 3016 3011 3006 3001 2996 2991 2986 2981 2976 2970 2965 2960 2955 2952 2950 2952 2952 2954 2954 2955 2959 2961
3055 3056 3057 3053 3053 3056 3056 3053 3053 3054 3053 3053 3054 3053 3048 3045 3042 3036 3032 3027 3022 3018 3013 3009 3004 2999 2994 2989 2983 2979 2975 2969 2965 2960 2956 2955 2955 2953 2952 2952 2954 2957 2958 2961
3051 3054 3054 3051 3054 3053 3048 3048 3049 3049 3049 3051 3049 3047 3044 3042 3038 3033 3029 3025 3022 3018 3013 3008 3003 2998 2993 2988 2983 2977 2973 2969 2965 2962 2958 2955 2954 2954 2954 2954 2954 2956 2956 2959
3048 3051 3050 3050 3048 3047 3046 3045 3046 3046 3048 3046 3043 3043 3041 3038 3035 3031 3028 3024 3021 3016 3012 3006 3001 2996 2991 2986 2982 2978 2972 2967 2964 2962 2960 2957 2956 2955 2953 2951 2950 2950 2951 2951
3045 3046 3048 3048 3045 3040 3040 3040 3041 3042 3041 3039 3039 3037 3036 3034 3034 3031 3026 3023 3019 3015 3010 3005 3000 2995 2990 2984 2980 2975 2970 2966 2963 2960 2957 2955 2952 2951 2950 2948 2947 2947 2946 2947
3041 3044 3044 3044 3043 3040 3039 3038 3039 3043 3042 3036 3036 3034 3033 3032 3030 3027 3023 3020 3016 3012 3007 3003 2998 2992 2987 2983 2979 2974 2969 2964 2961 2958 2954 2951 2948 2947 2945 2943 2942 2942 2941 2941
3036 3039 3040 3041 3039 3039 3036 3036 3040 3037 3033 3032 3032 3031 3030 3028 3026 3023 3020 3016 3013 3009 3004 2999 2994 2990 2985 2980 2976 2972 2968 2964 2960 2956 2953 2950 2946 2944 2942 2940 2937 2936 2935 2934
3033 3033 3034 3035 3034 3032 3032 3033 3033 3032 3030 3029 3028 3027 3026 3024 3023 3020 3017 3013 3009 3004 3000 2995 2991 2986 2982 2977 2973 2969 2965 2959 2956 2953 2951 2947 2944 2941 2938 2935 2932 2929 2926 2925
3027 3028 3029 3030 3030 3029 3029 3029 3029 3028 3026 3025 3024 3023 3022 3020 3019 3016 3014 3010 3006 3001 2996 2992 2987 2983 2978 2973 2968 2963 2959 2955 2952 2949 2945 2942 2940 2936 2932 2929 2926 2924 2921 2919
3023 3024 3025 3025 3026 3025 3026 3026 3025 3024 3023 3022 3021 3020 3019 3017 3015 3012 3009 3005 3002 2998 2993 2988 2982 2977 2973 2968 2963 2959 2954 2949 2945 2941 2938 2935 2931 2928 2926 2922 2918 2916 2913 2909
3021 3022 3022 3022 3021 3023 3023 3023 3022 3021 3020 3019 3018 3017 3015 3013 3011 3008 3004 3000 2996 2992 2988 2984 2980 2974 2969 2964 2959 2953 2948 2943 2939 2935 2932 2929 2926 2923 2920 2917 2914 2910 2906 2903